0 HST 1 20580U 90037B 25271.77905519 .00012641 00000-0 46110-3 0 9993 2 20580 28.4687 62.1579 0002615 120.7705 239.3148 15.26559943748523 0 ISS (ZARYA) 1 25544U 98067A 25272.11352776 .00016154 00000-0 29563-3 0 9995 2 25544 51.6321 151.9589 0001160 174.5879 185.5122 15.49493379531284 0 CXO 1 25867U 99040B 25272.57265787 .00001049 00000-0 00000-0 0 9999 2 25867 51.5546 125.3902 8260299 310.4462 0.4233 0.37800873 16335